owner,sensor,date,latitude,longitude,vertical_datum,sea_water_temperature,qcFlag 
TCOON,ioos:station:TCOON:057:1,2016-08-01T00:18:00Z,28.4460,-96.3961,0.0,33.4,2 
TCOON,ioos:station:TCOON:057:1,2016-08-01T01:18:00Z,28.4460,-96.3961,0.0,32.9,2 
TCOON,ioos:station:TCOON:057:1,2016-08-01T02:18:00Z,28.4460,-96.3961,0.0,32.8,2 
TCOON,ioos:station:TCOON:057:1,2016-08-01T03:18:00Z,28.4460,-96.3961,0.0,32.8,2 
TCOON,ioos:station:TCOON:057:1,2016-08-01T04:18:00Z,28.4460,-96.3961,0.0,33.3,2 
TCOON,ioos:station:TCOON:057:1,2016-08-01T05:18:00Z,28.4460,-96.3961,0.0,33.0,2 
TCOON,ioos:station:TCOON:057:1,2016-08-01T06:18:00Z,28.4460,-96.3961,0.0,32.9,2 
TCOON,ioos:station:TCOON:057:1,2016-08-01T07:18:00Z,28.4460,-96.3961,0.0,32.8,2 
TCOON,ioos:station:TCOON:057:1,2016-08-01T08:24:00Z,28.4460,-96.3961,0.0,32.7,2 
TCOON,ioos:station:TCOON:057:1,2016-08-01T09:18:00Z,28.4460,-96.3961,0.0,32.7,2 
TCOON,ioos:station:TCOON:057:1,2016-08-01T10:18:00Z,28.4460,-96.3961,0.0,32.5,2 
TCOON,ioos:station:TCOON:057:1,2016-08-01T11:18:00Z,28.4460,-96.3961,0.0,32.5,2 
TCOON,ioos:station:TCOON:057:1,2016-08-01T12:18:00Z,28.4460,-96.3961,0.0,32.4,2 
TCOON,ioos:station:TCOON:057:1,2016-08-01T13:18:00Z,28.4460,-96.3961,0.0,32.4,2 
TCOON,ioos:station:TCOON:057:1,2016-08-01T14:18:00Z,28.4460,-96.3961,0.0,32.3,2 
TCOON,ioos:station:TCOON:057:1,2016-08-01T15:18:00Z,28.4460,-96.3961,0.0,32.3,2 
TCOON,ioos:station:TCOON:057:1,2016-08-01T16:18:00Z,28.4460,-96.3961,0.0,32.4,2 
TCOON,ioos:station:TCOON:057:1,2016-08-01T17:18:00Z,28.4460,-96.3961,0.0,32.6,2 
TCOON,ioos:station:TCOON:057:1,2016-08-01T18:18:00Z,28.4460,-96.3961,0.0,32.9,2 
TCOON,ioos:station:TCOON:057:1,2016-08-01T19:24:00Z,28.4460,-96.3961,0.0,33.1,2 
TCOON,ioos:station:TCOON:057:1,2016-08-01T20:18:00Z,28.4460,-96.3961,0.0,33.7,2 
TCOON,ioos:station:TCOON:057:1,2016-08-01T21:18:00Z,28.4460,-96.3961,0.0,33.7,2 
TCOON,ioos:station:TCOON:057:1,2016-08-01T22:18:00Z,28.4460,-96.3961,0.0,33.6,2 
TCOON,ioos:station:TCOON:057:1,2016-08-01T23:18:00Z,28.4460,-96.3961,0.0,33.5,2 
TCOON,ioos:station:TCOON:057:1,2016-08-02T00:18:00Z,28.4460,-96.3961,0.0,33.5,2 
TCOON,ioos:station:TCOON:057:1,2016-08-02T01:18:00Z,28.4460,-96.3961,0.0,33.4,2 
TCOON,ioos:station:TCOON:057:1,2016-08-02T02:18:00Z,28.4460,-96.3961,0.0,33.2,2 
TCOON,ioos:station:TCOON:057:1,2016-08-02T03:18:00Z,28.4460,-96.3961,0.0,33.0,2 
TCOON,ioos:station:TCOON:057:1,2016-08-02T04:24:00Z,28.4460,-96.3961,0.0,32.7,2 
TCOON,ioos:station:TCOON:057:1,2016-08-02T05:18:00Z,28.4460,-96.3961,0.0,32.5,2 
TCOON,ioos:station:TCOON:057:1,2016-08-02T06:18:00Z,28.4460,-96.3961,0.0,32.5,2 
TCOON,ioos:station:TCOON:057:1,2016-08-02T07:18:00Z,28.4460,-96.3961,0.0,32.8,2 
TCOON,ioos:station:TCOON:057:1,2016-08-02T08:18:00Z,28.4460,-96.3961,0.0,32.7,2 
TCOON,ioos:station:TCOON:057:1,2016-08-02T09:18:00Z,28.4460,-96.3961,0.0,32.7,2 
TCOON,ioos:station:TCOON:057:1,2016-08-02T10:18:00Z,28.4460,-96.3961,0.0,32.7,2 
TCOON,ioos:station:TCOON:057:1,2016-08-02T11:18:00Z,28.4460,-96.3961,0.0,32.7,2 
TCOON,ioos:station:TCOON:057:1,2016-08-02T12:18:00Z,28.4460,-96.3961,0.0,32.6,2 
TCOON,ioos:station:TCOON:057:1,2016-08-02T13:18:00Z,28.4460,-96.3961,0.0,32.4,2 
TCOON,ioos:station:TCOON:057:1,2016-08-02T14:18:00Z,28.4460,-96.3961,0.0,32.3,2 
TCOON,ioos:station:TCOON:057:1,2016-08-02T15:18:00Z,28.4460,-96.3961,0.0,32.4,2 
TCOON,ioos:station:TCOON:057:1,2016-08-02T16:18:00Z,28.4460,-96.3961,0.0,32.5,2 
TCOON,ioos:station:TCOON:057:1,2016-08-02T17:18:00Z,28.4460,-96.3961,0.0,32.8,2 
TCOON,ioos:station:TCOON:057:1,2016-08-02T18:18:00Z,28.4460,-96.3961,0.0,32.9,2 
TCOON,ioos:station:TCOON:057:1,2016-08-02T19:18:00Z,28.4460,-96.3961,0.0,33.3,2 
TCOON,ioos:station:TCOON:057:1,2016-08-02T20:18:00Z,28.4460,-96.3961,0.0,33.7,2 
TCOON,ioos:station:TCOON:057:1,2016-08-02T21:18:00Z,28.4460,-96.3961,0.0,33.6,2 
TCOON,ioos:station:TCOON:057:1,2016-08-02T22:18:00Z,28.4460,-96.3961,0.0,33.8,2 
TCOON,ioos:station:TCOON:057:1,2016-08-02T23:18:00Z,28.4460,-96.3961,0.0,33.8,2 
TCOON,ioos:station:TCOON:057:1,2016-08-03T00:18:00Z,28.4460,-96.3961,0.0,33.8,2 
TCOON,ioos:station:TCOON:057:1,2016-08-03T01:18:00Z,28.4460,-96.3961,0.0,33.9,2 
TCOON,ioos:station:TCOON:057:1,2016-08-03T02:18:00Z,28.4460,-96.3961,0.0,33.6,2 
TCOON,ioos:station:TCOON:057:1,2016-08-03T03:18:00Z,28.4460,-96.3961,0.0,33.4,2 
TCOON,ioos:station:TCOON:057:1,2016-08-03T04:18:00Z,28.4460,-96.3961,0.0,33.1,2 
TCOON,ioos:station:TCOON:057:1,2016-08-03T05:18:00Z,28.4460,-96.3961,0.0,33.1,2 
TCOON,ioos:station:TCOON:057:1,2016-08-03T06:18:00Z,28.4460,-96.3961,0.0,33.0,2 
TCOON,ioos:station:TCOON:057:1,2016-08-03T07:18:00Z,28.4460,-96.3961,0.0,32.9,2 
TCOON,ioos:station:TCOON:057:1,2016-08-03T08:18:00Z,28.4460,-96.3961,0.0,32.9,2 
TCOON,ioos:station:TCOON:057:1,2016-08-03T09:18:00Z,28.4460,-96.3961,0.0,32.9,2 
TCOON,ioos:station:TCOON:057:1,2016-08-03T10:18:00Z,28.4460,-96.3961,0.0,32.8,2 
TCOON,ioos:station:TCOON:057:1,2016-08-03T11:18:00Z,28.4460,-96.3961,0.0,32.8,2 
TCOON,ioos:station:TCOON:057:1,2016-08-03T12:18:00Z,28.4460,-96.3961,0.0,32.7,2 
TCOON,ioos:station:TCOON:057:1,2016-08-03T13:18:00Z,28.4460,-96.3961,0.0,32.6,2 
TCOON,ioos:station:TCOON:057:1,2016-08-03T14:18:00Z,28.4460,-96.3961,0.0,32.7,2 
TCOON,ioos:station:TCOON:057:1,2016-08-03T15:18:00Z,28.4460,-96.3961,0.0,32.7,2 
TCOON,ioos:station:TCOON:057:1,2016-08-03T16:18:00Z,28.4460,-96.3961,0.0,32.9,2 
TCOON,ioos:station:TCOON:057:1,2016-08-03T17:18:00Z,28.4460,-96.3961,0.0,32.9,2 
TCOON,ioos:station:TCOON:057:1,2016-08-03T18:18:00Z,28.4460,-96.3961,0.0,33.0,2 
TCOON,ioos:station:TCOON:057:1,2016-08-03T19:18:00Z,28.4460,-96.3961,0.0,33.1,2 
TCOON,ioos:station:TCOON:057:1,2016-08-05T20:18:00Z,28.4460,-96.3961,0.0,34.4,2 
TCOON,ioos:station:TCOON:057:1,2016-08-05T21:18:00Z,28.4460,-96.3961,0.0,33.9,2 
TCOON,ioos:station:TCOON:057:1,2016-08-05T22:18:00Z,28.4460,-96.3961,0.0,33.9,2 
TCOON,ioos:station:TCOON:057:1,2016-08-05T23:18:00Z,28.4460,-96.3961,0.0,33.9,2 
TCOON,ioos:station:TCOON:057:1,2016-08-06T00:18:00Z,28.4460,-96.3961,0.0,33.7,2 
TCOON,ioos:station:TCOON:057:1,2016-08-06T01:18:00Z,28.4460,-96.3961,0.0,33.5,2 
TCOON,ioos:station:TCOON:057:1,2016-08-06T02:18:00Z,28.4460,-96.3961,0.0,33.4,2 
TCOON,ioos:station:TCOON:057:1,2016-08-06T03:18:00Z,28.4460,-96.3961,0.0,33.3,2 
TCOON,ioos:station:TCOON:057:1,2016-08-06T04:18:00Z,28.4460,-96.3961,0.0,33.2,2 
TCOON,ioos:station:TCOON:057:1,2016-08-06T05:18:00Z,28.4460,-96.3961,0.0,33.0,2 
TCOON,ioos:station:TCOON:057:1,2016-08-06T06:18:00Z,28.4460,-96.3961,0.0,33.0,2 
TCOON,ioos:station:TCOON:057:1,2016-08-06T07:24:00Z,28.4460,-96.3961,0.0,33.1,2 
TCOON,ioos:station:TCOON:057:1,2016-08-06T08:18:00Z,28.4460,-96.3961,0.0,33.1,2 
TCOON,ioos:station:TCOON:057:1,2016-08-06T09:18:00Z,28.4460,-96.3961,0.0,33.1,2 
TCOON,ioos:station:TCOON:057:1,2016-08-06T10:18:00Z,28.4460,-96.3961,0.0,33.1,2 
TCOON,ioos:station:TCOON:057:1,2016-08-06T11:18:00Z,28.4460,-96.3961,0.0,33.3,2 
TCOON,ioos:station:TCOON:057:1,2016-08-06T12:18:00Z,28.4460,-96.3961,0.0,33.1,2 
TCOON,ioos:station:TCOON:057:1,2016-08-06T13:18:00Z,28.4460,-96.3961,0.0,33.3,2 
TCOON,ioos:station:TCOON:057:1,2016-08-06T14:18:00Z,28.4460,-96.3961,0.0,33.3,2 
TCOON,ioos:station:TCOON:057:1,2016-08-06T15:18:00Z,28.4460,-96.3961,0.0,33.4,2 
TCOON,ioos:station:TCOON:057:1,2016-08-06T16:18:00Z,28.4460,-96.3961,0.0,33.5,2 
TCOON,ioos:station:TCOON:057:1,2016-08-06T17:18:00Z,28.4460,-96.3961,0.0,33.7,2 
TCOON,ioos:station:TCOON:057:1,2016-08-06T18:18:00Z,28.4460,-96.3961,0.0,34.0,2 
TCOON,ioos:station:TCOON:057:1,2016-08-06T19:18:00Z,28.4460,-96.3961,0.0,34.2,2 
TCOON,ioos:station:TCOON:057:1,2016-08-06T20:18:00Z,28.4460,-96.3961,0.0,34.7,2 
TCOON,ioos:station:TCOON:057:1,2016-08-06T21:18:00Z,28.4460,-96.3961,0.0,34.5,2 
TCOON,ioos:station:TCOON:057:1,2016-08-06T22:18:00Z,28.4460,-96.3961,0.0,34.3,2 
TCOON,ioos:station:TCOON:057:1,2016-08-06T23:18:00Z,28.4460,-96.3961,0.0,34.2,2 
TCOON,ioos:station:TCOON:057:1,2016-08-07T00:18:00Z,28.4460,-96.3961,0.0,34.0,2 
TCOON,ioos:station:TCOON:057:1,2016-08-07T01:18:00Z,28.4460,-96.3961,0.0,33.7,2 
TCOON,ioos:station:TCOON:057:1,2016-08-07T02:18:00Z,28.4460,-96.3961,0.0,33.8,2 
TCOON,ioos:station:TCOON:057:1,2016-08-07T03:18:00Z,28.4460,-96.3961,0.0,33.6,2 
TCOON,ioos:station:TCOON:057:1,2016-08-07T04:18:00Z,28.4460,-96.3961,0.0,33.2,2 
TCOON,ioos:station:TCOON:057:1,2016-08-07T05:18:00Z,28.4460,-96.3961,0.0,33.0,2 
TCOON,ioos:station:TCOON:057:1,2016-08-07T06:18:00Z,28.4460,-96.3961,0.0,33.1,2 
TCOON,ioos:station:TCOON:057:1,2016-08-07T07:18:00Z,28.4460,-96.3961,0.0,33.2,2 
TCOON,ioos:station:TCOON:057:1,2016-08-07T08:18:00Z,28.4460,-96.3961,0.0,33.2,2 
TCOON,ioos:station:TCOON:057:1,2016-08-07T09:18:00Z,28.4460,-96.3961,0.0,33.2,2 
TCOON,ioos:station:TCOON:057:1,2016-08-07T10:18:00Z,28.4460,-96.3961,0.0,33.2,2 
TCOON,ioos:station:TCOON:057:1,2016-08-07T11:18:00Z,28.4460,-96.3961,0.0,33.2,2 
TCOON,ioos:station:TCOON:057:1,2016-08-07T12:18:00Z,28.4460,-96.3961,0.0,33.3,2 
TCOON,ioos:station:TCOON:057:1,2016-08-07T13:18:00Z,28.4460,-96.3961,0.0,33.3,2 
TCOON,ioos:station:TCOON:057:1,2016-08-07T14:18:00Z,28.4460,-96.3961,0.0,33.3,2 
TCOON,ioos:station:TCOON:057:1,2016-08-07T15:18:00Z,28.4460,-96.3961,0.0,33.4,2 
TCOON,ioos:station:TCOON:057:1,2016-08-07T16:18:00Z,28.4460,-96.3961,0.0,33.6,2 
TCOON,ioos:station:TCOON:057:1,2016-08-07T17:18:00Z,28.4460,-96.3961,0.0,33.9,2 
TCOON,ioos:station:TCOON:057:1,2016-08-07T18:18:00Z,28.4460,-96.3961,0.0,33.9,2 
TCOON,ioos:station:TCOON:057:1,2016-08-07T19:18:00Z,28.4460,-96.3961,0.0,34.1,2 
TCOON,ioos:station:TCOON:057:1,2016-08-07T20:18:00Z,28.4460,-96.3961,0.0,33.8,2 
TCOON,ioos:station:TCOON:057:1,2016-08-07T21:18:00Z,28.4460,-96.3961,0.0,33.9,2 
TCOON,ioos:station:TCOON:057:1,2016-08-07T22:18:00Z,28.4460,-96.3961,0.0,33.9,2 
TCOON,ioos:station:TCOON:057:1,2016-08-07T23:18:00Z,28.4460,-96.3961,0.0,33.5,2 
TCOON,ioos:station:TCOON:057:1,2016-08-08T00:18:00Z,28.4460,-96.3961,0.0,33.4,2 
TCOON,ioos:station:TCOON:057:1,2016-08-08T01:18:00Z,28.4460,-96.3961,0.0,33.3,2 
TCOON,ioos:station:TCOON:057:1,2016-08-08T02:18:00Z,28.4460,-96.3961,0.0,33.3,2 
TCOON,ioos:station:TCOON:057:1,2016-08-08T03:18:00Z,28.4460,-96.3961,0.0,33.4,2 
TCOON,ioos:station:TCOON:057:1,2016-08-08T04:18:00Z,28.4460,-96.3961,0.0,33.4,2 
TCOON,ioos:station:TCOON:057:1,2016-08-08T05:18:00Z,28.4460,-96.3961,0.0,33.2,2 
TCOON,ioos:station:TCOON:057:1,2016-08-08T06:24:00Z,28.4460,-96.3961,0.0,33.0,2 
TCOON,ioos:station:TCOON:057:1,2016-08-08T07:18:00Z,28.4460,-96.3961,0.0,32.9,2 
TCOON,ioos:station:TCOON:057:1,2016-08-08T08:18:00Z,28.4460,-96.3961,0.0,32.9,2 
TCOON,ioos:station:TCOON:057:1,2016-08-08T09:18:00Z,28.4460,-96.3961,0.0,32.9,2 
TCOON,ioos:station:TCOON:057:1,2016-08-08T10:18:00Z,28.4460,-96.3961,0.0,33.0,2 
TCOON,ioos:station:TCOON:057:1,2016-08-08T11:18:00Z,28.4460,-96.3961,0.0,33.1,2 
TCOON,ioos:station:TCOON:057:1,2016-08-08T12:18:00Z,28.4460,-96.3961,0.0,33.2,2 
TCOON,ioos:station:TCOON:057:1,2016-08-08T13:18:00Z,28.4460,-96.3961,0.0,33.1,2 
TCOON,ioos:station:TCOON:057:1,2016-08-08T14:18:00Z,28.4460,-96.3961,0.0,33.2,2 
TCOON,ioos:station:TCOON:057:1,2016-08-08T15:18:00Z,28.4460,-96.3961,0.0,33.3,2 
TCOON,ioos:station:TCOON:057:1,2016-08-08T16:18:00Z,28.4460,-96.3961,0.0,33.4,2 
TCOON,ioos:station:TCOON:057:1,2016-08-08T17:18:00Z,28.4460,-96.3961,0.0,33.8,2 
TCOON,ioos:station:TCOON:057:1,2016-08-08T18:18:00Z,28.4460,-96.3961,0.0,34.1,2 
TCOON,ioos:station:TCOON:057:1,2016-08-08T19:18:00Z,28.4460,-96.3961,0.0,33.8,2 
TCOON,ioos:station:TCOON:057:1,2016-08-08T20:18:00Z,28.4460,-96.3961,0.0,33.6,2 
TCOON,ioos:station:TCOON:057:1,2016-08-08T21:18:00Z,28.4460,-96.3961,0.0,34.2,2 
TCOON,ioos:station:TCOON:057:1,2016-08-08T22:18:00Z,28.4460,-96.3961,0.0,33.7,2 
TCOON,ioos:station:TCOON:057:1,2016-08-08T23:18:00Z,28.4460,-96.3961,0.0,33.1,2 
TCOON,ioos:station:TCOON:057:1,2016-08-09T00:18:00Z,28.4460,-96.3961,0.0,33.0,2 
TCOON,ioos:station:TCOON:057:1,2016-08-09T01:18:00Z,28.4460,-96.3961,0.0,33.0,2 
TCOON,ioos:station:TCOON:057:1,2016-08-09T02:18:00Z,28.4460,-96.3961,0.0,33.3,2 
TCOON,ioos:station:TCOON:057:1,2016-08-09T03:18:00Z,28.4460,-96.3961,0.0,33.5,2 
TCOON,ioos:station:TCOON:057:1,2016-08-09T04:18:00Z,28.4460,-96.3961,0.0,33.4,2 
TCOON,ioos:station:TCOON:057:1,2016-08-09T05:18:00Z,28.4460,-96.3961,0.0,33.3,2 
TCOON,ioos:station:TCOON:057:1,2016-08-09T06:18:00Z,28.4460,-96.3961,0.0,33.3,2 
TCOON,ioos:station:TCOON:057:1,2016-08-09T07:18:00Z,28.4460,-96.3961,0.0,33.3,2 
TCOON,ioos:station:TCOON:057:1,2016-08-09T08:18:00Z,28.4460,-96.3961,0.0,33.3,2 
TCOON,ioos:station:TCOON:057:1,2016-08-09T09:18:00Z,28.4460,-96.3961,0.0,33.4,2 
TCOON,ioos:station:TCOON:057:1,2016-08-09T10:18:00Z,28.4460,-96.3961,0.0,33.4,2 
TCOON,ioos:station:TCOON:057:1,2016-08-09T11:18:00Z,28.4460,-96.3961,0.0,33.4,2 
TCOON,ioos:station:TCOON:057:1,2016-08-09T12:18:00Z,28.4460,-96.3961,0.0,33.4,2 
TCOON,ioos:station:TCOON:057:1,2016-08-09T13:18:00Z,28.4460,-96.3961,0.0,33.4,2 
TCOON,ioos:station:TCOON:057:1,2016-08-09T14:18:00Z,28.4460,-96.3961,0.0,33.1,2 
TCOON,ioos:station:TCOON:057:1,2016-08-09T15:18:00Z,28.4460,-96.3961,0.0,33.0,2 
TCOON,ioos:station:TCOON:057:1,2016-08-09T16:18:00Z,28.4460,-96.3961,0.0,33.3,2 
TCOON,ioos:station:TCOON:057:1,2016-08-09T17:18:00Z,28.4460,-96.3961,0.0,33.6,2 
TCOON,ioos:station:TCOON:057:1,2016-08-09T18:18:00Z,28.4460,-96.3961,0.0,33.8,2 
TCOON,ioos:station:TCOON:057:1,2016-08-09T19:18:00Z,28.4460,-96.3961,0.0,33.9,2 
TCOON,ioos:station:TCOON:057:1,2016-08-09T20:18:00Z,28.4460,-96.3961,0.0,33.9,2 
TCOON,ioos:station:TCOON:057:1,2016-08-09T21:18:00Z,28.4460,-96.3961,0.0,34.1,2 
TCOON,ioos:station:TCOON:057:1,2016-08-09T22:18:00Z,28.4460,-96.3961,0.0,34.1,2 
TCOON,ioos:station:TCOON:057:1,2016-08-09T23:18:00Z,28.4460,-96.3961,0.0,33.9,2 
TCOON,ioos:station:TCOON:057:1,2016-08-10T00:18:00Z,28.4460,-96.3961,0.0,33.9,2 
TCOON,ioos:station:TCOON:057:1,2016-08-10T01:18:00Z,28.4460,-96.3961,0.0,33.4,2 
TCOON,ioos:station:TCOON:057:1,2016-08-10T02:18:00Z,28.4460,-96.3961,0.0,33.4,2 
TCOON,ioos:station:TCOON:057:1,2016-08-10T03:18:00Z,28.4460,-96.3961,0.0,33.4,2 
TCOON,ioos:station:TCOON:057:1,2016-08-10T04:18:00Z,28.4460,-96.3961,0.0,33.4,2 
TCOON,ioos:station:TCOON:057:1,2016-08-10T05:18:00Z,28.4460,-96.3961,0.0,33.4,2 
TCOON,ioos:station:TCOON:057:1,2016-08-10T06:54:00Z,28.4460,-96.3961,0.0,33.4,2 
TCOON,ioos:station:TCOON:057:1,2016-08-10T07:18:00Z,28.4460,-96.3961,0.0,33.4,2 
TCOON,ioos:station:TCOON:057:1,2016-08-10T08:18:00Z,28.4460,-96.3961,0.0,33.4,2 
TCOON,ioos:station:TCOON:057:1,2016-08-10T09:18:00Z,28.4460,-96.3961,0.0,33.4,2 
TCOON,ioos:station:TCOON:057:1,2016-08-10T10:18:00Z,28.4460,-96.3961,0.0,33.4,2 
TCOON,ioos:station:TCOON:057:1,2016-08-10T11:18:00Z,28.4460,-96.3961,0.0,33.4,2 
TCOON,ioos:station:TCOON:057:1,2016-08-10T12:18:00Z,28.4460,-96.3961,0.0,33.1,2 
TCOON,ioos:station:TCOON:057:1,2016-08-10T13:18:00Z,28.4460,-96.3961,0.0,32.4,2 
TCOON,ioos:station:TCOON:057:1,2016-08-10T14:18:00Z,28.4460,-96.3961,0.0,32.4,2 
TCOON,ioos:station:TCOON:057:1,2016-08-10T15:18:00Z,28.4460,-96.3961,0.0,32.6,2 
TCOON,ioos:station:TCOON:057:1,2016-08-10T16:18:00Z,28.4460,-96.3961,0.0,32.9,2 
TCOON,ioos:station:TCOON:057:1,2016-08-10T17:18:00Z,28.4460,-96.3961,0.0,33.2,2 
TCOON,ioos:station:TCOON:057:1,2016-08-10T18:18:00Z,28.4460,-96.3961,0.0,33.5,2 
TCOON,ioos:station:TCOON:057:1,2016-08-10T19:18:00Z,28.4460,-96.3961,0.0,34.2,2 
TCOON,ioos:station:TCOON:057:1,2016-08-10T20:18:00Z,28.4460,-96.3961,0.0,34.4,2 
TCOON,ioos:station:TCOON:057:1,2016-08-10T21:18:00Z,28.4460,-96.3961,0.0,34.6,2 
TCOON,ioos:station:TCOON:057:1,2016-08-10T22:18:00Z,28.4460,-96.3961,0.0,34.2,2 
TCOON,ioos:station:TCOON:057:1,2016-08-10T23:18:00Z,28.4460,-96.3961,0.0,34.3,2 
TCOON,ioos:station:TCOON:057:1,2016-08-11T00:18:00Z,28.4460,-96.3961,0.0,34.2,2 
TCOON,ioos:station:TCOON:057:1,2016-08-11T01:18:00Z,28.4460,-96.3961,0.0,33.9,2 
TCOON,ioos:station:TCOON:057:1,2016-08-11T02:18:00Z,28.4460,-96.3961,0.0,33.5,2 
TCOON,ioos:station:TCOON:057:1,2016-08-11T03:18:00Z,28.4460,-96.3961,0.0,33.4,2 
TCOON,ioos:station:TCOON:057:1,2016-08-11T04:18:00Z,28.4460,-96.3961,0.0,33.4,2 
TCOON,ioos:station:TCOON:057:1,2016-08-11T05:18:00Z,28.4460,-96.3961,0.0,33.4,2 
TCOON,ioos:station:TCOON:057:1,2016-08-11T06:18:00Z,28.4460,-96.3961,0.0,33.5,2 
TCOON,ioos:station:TCOON:057:1,2016-08-11T07:18:00Z,28.4460,-96.3961,0.0,33.4,2 
TCOON,ioos:station:TCOON:057:1,2016-08-11T08:18:00Z,28.4460,-96.3961,0.0,33.4,2 
TCOON,ioos:station:TCOON:057:1,2016-08-11T09:18:00Z,28.4460,-96.3961,0.0,33.4,2 
TCOON,ioos:station:TCOON:057:1,2016-08-11T10:18:00Z,28.4460,-96.3961,0.0,33.4,2 
TCOON,ioos:station:TCOON:057:1,2016-08-11T11:18:00Z,28.4460,-96.3961,0.0,33.4,2 
TCOON,ioos:station:TCOON:057:1,2016-08-11T12:18:00Z,28.4460,-96.3961,0.0,32.4,2 
TCOON,ioos:station:TCOON:057:1,2016-08-11T13:18:00Z,28.4460,-96.3961,0.0,32.4,2 
TCOON,ioos:station:TCOON:057:1,2016-08-11T14:18:00Z,28.4460,-96.3961,0.0,32.8,2 
TCOON,ioos:station:TCOON:057:1,2016-08-11T15:18:00Z,28.4460,-96.3961,0.0,33.0,2 
TCOON,ioos:station:TCOON:057:1,2016-08-11T16:18:00Z,28.4460,-96.3961,0.0,33.1,2 
TCOON,ioos:station:TCOON:057:1,2016-08-11T17:18:00Z,28.4460,-96.3961,0.0,33.2,2 
TCOON,ioos:station:TCOON:057:1,2016-08-11T18:18:00Z,28.4460,-96.3961,0.0,33.4,2 
TCOON,ioos:station:TCOON:057:1,2016-08-11T19:18:00Z,28.4460,-96.3961,0.0,33.6,2 
TCOON,ioos:station:TCOON:057:1,2016-08-11T20:24:00Z,28.4460,-96.3961,0.0,33.7,2 
TCOON,ioos:station:TCOON:057:1,2016-08-11T21:18:00Z,28.4460,-96.3961,0.0,33.9,2 
TCOON,ioos:station:TCOON:057:1,2016-08-11T22:18:00Z,28.4460,-96.3961,0.0,33.9,2 
TCOON,ioos:station:TCOON:057:1,2016-08-11T23:18:00Z,28.4460,-96.3961,0.0,33.9,2 
TCOON,ioos:station:TCOON:057:1,2016-08-12T00:36:00Z,28.4460,-96.3961,0.0,33.7,2 
TCOON,ioos:station:TCOON:057:1,2016-08-12T01:30:00Z,28.4460,-96.3961,0.0,33.6,2 
TCOON,ioos:station:TCOON:057:1,2016-08-12T02:18:00Z,28.4460,-96.3961,0.0,33.4,2 
TCOON,ioos:station:TCOON:057:1,2016-08-12T03:18:00Z,28.4460,-96.3961,0.0,33.4,2 
TCOON,ioos:station:TCOON:057:1,2016-08-12T04:18:00Z,28.4460,-96.3961,0.0,33.4,2 
TCOON,ioos:station:TCOON:057:1,2016-08-12T05:18:00Z,28.4460,-96.3961,0.0,33.4,2 
TCOON,ioos:station:TCOON:057:1,2016-08-12T06:18:00Z,28.4460,-96.3961,0.0,33.5,2 
TCOON,ioos:station:TCOON:057:1,2016-08-12T07:18:00Z,28.4460,-96.3961,0.0,33.6,2 
TCOON,ioos:station:TCOON:057:1,2016-08-12T08:18:00Z,28.4460,-96.3961,0.0,33.6,2 
TCOON,ioos:station:TCOON:057:1,2016-08-12T09:18:00Z,28.4460,-96.3961,0.0,33.6,2 
TCOON,ioos:station:TCOON:057:1,2016-08-12T10:18:00Z,28.4460,-96.3961,0.0,33.5,2 
TCOON,ioos:station:TCOON:057:1,2016-08-12T11:18:00Z,28.4460,-96.3961,0.0,33.1,2 
TCOON,ioos:station:TCOON:057:1,2016-08-12T12:18:00Z,28.4460,-96.3961,0.0,32.9,2 
TCOON,ioos:station:TCOON:057:1,2016-08-12T13:18:00Z,28.4460,-96.3961,0.0,32.8,2 
TCOON,ioos:station:TCOON:057:1,2016-08-12T14:18:00Z,28.4460,-96.3961,0.0,32.8,2 
TCOON,ioos:station:TCOON:057:1,2016-08-12T15:18:00Z,28.4460,-96.3961,0.0,32.4,2 
TCOON,ioos:station:TCOON:057:1,2016-08-12T16:18:00Z,28.4460,-96.3961,0.0,32.7,2 
TCOON,ioos:station:TCOON:057:1,2016-08-12T17:18:00Z,28.4460,-96.3961,0.0,33.0,2 
TCOON,ioos:station:TCOON:057:1,2016-08-12T18:18:00Z,28.4460,-96.3961,0.0,33.1,2 
TCOON,ioos:station:TCOON:057:1,2016-08-12T19:24:00Z,28.4460,-96.3961,0.0,33.4,2 
TCOON,ioos:station:TCOON:057:1,2016-08-12T20:18:00Z,28.4460,-96.3961,0.0,33.5,2 
TCOON,ioos:station:TCOON:057:1,2016-08-12T21:18:00Z,28.4460,-96.3961,0.0,33.7,2 
TCOON,ioos:station:TCOON:057:1,2016-08-12T22:18:00Z,28.4460,-96.3961,0.0,33.8,2 
TCOON,ioos:station:TCOON:057:1,2016-08-12T23:18:00Z,28.4460,-96.3961,0.0,33.7,2 
TCOON,ioos:station:TCOON:057:1,2016-08-13T00:18:00Z,28.4460,-96.3961,0.0,33.6,2 
TCOON,ioos:station:TCOON:057:1,2016-08-13T01:18:00Z,28.4460,-96.3961,0.0,33.5,2 
TCOON,ioos:station:TCOON:057:1,2016-08-13T02:18:00Z,28.4460,-96.3961,0.0,33.4,2 
TCOON,ioos:station:TCOON:057:1,2016-08-13T03:18:00Z,28.4460,-96.3961,0.0,33.4,2 
TCOON,ioos:station:TCOON:057:1,2016-08-13T04:18:00Z,28.4460,-96.3961,0.0,33.3,2 
TCOON,ioos:station:TCOON:057:1,2016-08-13T05:18:00Z,28.4460,-96.3961,0.0,33.2,2 
TCOON,ioos:station:TCOON:057:1,2016-08-13T06:18:00Z,28.4460,-96.3961,0.0,33.2,2 
TCOON,ioos:station:TCOON:057:1,2016-08-13T07:18:00Z,28.4460,-96.3961,0.0,33.2,2 
TCOON,ioos:station:TCOON:057:1,2016-08-13T08:18:00Z,28.4460,-96.3961,0.0,33.2,2 
TCOON,ioos:station:TCOON:057:1,2016-08-13T09:18:00Z,28.4460,-96.3961,0.0,33.2,2 
TCOON,ioos:station:TCOON:057:1,2016-08-13T10:18:00Z,28.4460,-96.3961,0.0,33.2,2 
TCOON,ioos:station:TCOON:057:1,2016-08-13T11:18:00Z,28.4460,-96.3961,0.0,33.0,2 
TCOON,ioos:station:TCOON:057:1,2016-08-13T12:18:00Z,28.4460,-96.3961,0.0,32.9,2 
TCOON,ioos:station:TCOON:057:1,2016-08-13T13:18:00Z,28.4460,-96.3961,0.0,32.8,2 
TCOON,ioos:station:TCOON:057:1,2016-08-13T14:18:00Z,28.4460,-96.3961,0.0,32.8,2 
TCOON,ioos:station:TCOON:057:1,2016-08-13T15:18:00Z,28.4460,-96.3961,0.0,32.8,2 
TCOON,ioos:station:TCOON:057:1,2016-08-13T16:18:00Z,28.4460,-96.3961,0.0,32.9,2 
TCOON,ioos:station:TCOON:057:1,2016-08-13T17:18:00Z,28.4460,-96.3961,0.0,32.9,2 
TCOON,ioos:station:TCOON:057:1,2016-08-13T18:18:00Z,28.4460,-96.3961,0.0,33.2,2 
TCOON,ioos:station:TCOON:057:1,2016-08-13T19:18:00Z,28.4460,-96.3961,0.0,33.6,2 
TCOON,ioos:station:TCOON:057:1,2016-08-13T20:18:00Z,28.4460,-96.3961,0.0,33.9,2 
TCOON,ioos:station:TCOON:057:1,2016-08-13T21:18:00Z,28.4460,-96.3961,0.0,34.0,2 
TCOON,ioos:station:TCOON:057:1,2016-08-13T22:18:00Z,28.4460,-96.3961,0.0,33.8,2 
TCOON,ioos:station:TCOON:057:1,2016-08-13T23:18:00Z,28.4460,-96.3961,0.0,33.9,2 
TCOON,ioos:station:TCOON:057:1,2016-08-14T00:18:00Z,28.4460,-96.3961,0.0,33.7,2 
TCOON,ioos:station:TCOON:057:1,2016-08-14T01:18:00Z,28.4460,-96.3961,0.0,33.4,2 
TCOON,ioos:station:TCOON:057:1,2016-08-14T02:18:00Z,28.4460,-96.3961,0.0,33.4,2 
TCOON,ioos:station:TCOON:057:1,2016-08-14T03:18:00Z,28.4460,-96.3961,0.0,33.4,2 
TCOON,ioos:station:TCOON:057:1,2016-08-14T04:18:00Z,28.4460,-96.3961,0.0,33.3,2 
TCOON,ioos:station:TCOON:057:1,2016-08-14T05:18:00Z,28.4460,-96.3961,0.0,33.5,2 
TCOON,ioos:station:TCOON:057:1,2016-08-14T06:18:00Z,28.4460,-96.3961,0.0,33.6,2 
TCOON,ioos:station:TCOON:057:1,2016-08-14T07:18:00Z,28.4460,-96.3961,0.0,33.5,2 
TCOON,ioos:station:TCOON:057:1,2016-08-14T08:18:00Z,28.4460,-96.3961,0.0,33.4,2 
TCOON,ioos:station:TCOON:057:1,2016-08-14T09:18:00Z,28.4460,-96.3961,0.0,33.3,2 
TCOON,ioos:station:TCOON:057:1,2016-08-14T10:18:00Z,28.4460,-96.3961,0.0,33.2,2 
TCOON,ioos:station:TCOON:057:1,2016-08-14T11:18:00Z,28.4460,-96.3961,0.0,32.8,2 
TCOON,ioos:station:TCOON:057:1,2016-08-14T12:24:00Z,28.4460,-96.3961,0.0,31.7,2 
TCOON,ioos:station:TCOON:057:1,2016-08-14T13:18:00Z,28.4460,-96.3961,0.0,31.8,2 
TCOON,ioos:station:TCOON:057:1,2016-08-14T14:18:00Z,28.4460,-96.3961,0.0,31.8,2 
TCOON,ioos:station:TCOON:057:1,2016-08-14T15:18:00Z,28.4460,-96.3961,0.0,31.8,2 
TCOON,ioos:station:TCOON:057:1,2016-08-14T16:18:00Z,28.4460,-96.3961,0.0,31.8,2 
TCOON,ioos:station:TCOON:057:1,2016-08-14T17:18:00Z,28.4460,-96.3961,0.0,31.8,2 
TCOON,ioos:station:TCOON:057:1,2016-08-14T18:18:00Z,28.4460,-96.3961,0.0,32.4,2 
TCOON,ioos:station:TCOON:057:1,2016-08-14T19:18:00Z,28.4460,-96.3961,0.0,33.0,2 
TCOON,ioos:station:TCOON:057:1,2016-08-14T20:18:00Z,28.4460,-96.3961,0.0,33.4,2 
TCOON,ioos:station:TCOON:057:1,2016-08-14T21:18:00Z,28.4460,-96.3961,0.0,33.5,2 
TCOON,ioos:station:TCOON:057:1,2016-08-14T22:18:00Z,28.4460,-96.3961,0.0,33.6,2 
TCOON,ioos:station:TCOON:057:1,2016-08-14T23:18:00Z,28.4460,-96.3961,0.0,33.6,2 
TCOON,ioos:station:TCOON:057:1,2016-08-15T00:18:00Z,28.4460,-96.3961,0.0,33.4,2 
TCOON,ioos:station:TCOON:057:1,2016-08-15T01:18:00Z,28.4460,-96.3961,0.0,33.2,2 
TCOON,ioos:station:TCOON:057:1,2016-08-15T02:18:00Z,28.4460,-96.3961,0.0,33.2,2 
TCOON,ioos:station:TCOON:057:1,2016-08-15T03:18:00Z,28.4460,-96.3961,0.0,33.0,2 
TCOON,ioos:station:TCOON:057:1,2016-08-15T04:18:00Z,28.4460,-96.3961,0.0,32.5,2 
TCOON,ioos:station:TCOON:057:1,2016-08-15T05:18:00Z,28.4460,-96.3961,0.0,32.5,2 
TCOON,ioos:station:TCOON:057:1,2016-08-15T06:18:00Z,28.4460,-96.3961,0.0,32.5,2 